Time,TemperatureF,DewpointF,PressureIn,WindDirection,WindDirectionDegrees,WindSpeedMPH,WindSpeedGustMPH,Humidity,HourlyPrecipIn,Conditions,Clouds,dailyrainin,SoftwareType,DateUTC
2013-03-16 00:08:00,68.6,47.0,29.77,SSW,196,12.0,18.0,46,0.00,,,0.00,weatherlink.com 1.10,2013-03-16 05:08:00,
2013-03-16 00:23:00,68.0,47.0,29.77,South,187,14.0,21.0,47,0.00,,,0.00,weatherlink.com 1.10,2013-03-16 05:23:00,
2013-03-16 00:38:00,67.9,47.0,29.77,South,183,12.0,17.0,47,0.00,,,0.00,weatherlink.com 1.10,2013-03-16 05:38:00,
2013-03-16 00:53:00,67.6,47.0,29.77,South,170,12.0,17.0,48,0.00,,,0.00,weatherlink.com 1.10,2013-03-16 05:53:00,
2013-03-16 01:08:00,67.1,47.0,29.77,SW,227,7.0,16.0,48,0.00,,,0.00,weatherlink.com 1.10,2013-03-16 06:08:00,
2013-03-16 01:23:00,67.1,47.0,29.77,SSW,205,12.0,16.0,48,0.00,,,0.00,weatherlink.com 1.10,2013-03-16 06:23:00,
2013-03-16 01:38:00,67.3,46.0,29.76,SSW,194,14.0,20.0,47,0.00,,,0.00,weatherlink.com 1.10,2013-03-16 06:38:00,
2013-03-16 01:53:00,66.9,46.0,29.76,South,187,14.0,17.0,48,0.00,,,0.00,weatherlink.com 1.10,2013-03-16 06:53:00,
2013-03-16 02:08:00,66.9,46.0,29.76,SSW,207,12.0,18.0,48,0.00,,,0.00,weatherlink.com 1.10,2013-03-16 07:08:00,
2013-03-16 02:23:00,66.5,46.0,29.76,South,182,11.0,16.0,48,0.00,,,0.00,weatherlink.com 1.10,2013-03-16 07:23:00,
2013-03-16 02:38:00,66.2,46.0,29.76,SSW,192,7.0,17.0,48,0.00,,,0.00,weatherlink.com 1.10,2013-03-16 07:38:00,
2013-03-16 02:53:00,65.9,46.0,29.76,SSW,199,7.0,14.0,49,0.00,,,0.00,weatherlink.com 1.10,2013-03-16 07:53:00,
2013-03-16 03:08:00,65.6,46.0,29.76,SSW,203,7.0,14.0,49,0.00,,,0.00,weatherlink.com 1.10,2013-03-16 08:08:00,
2013-03-16 03:23:00,65.1,46.0,29.76,SSW,193,10.0,12.0,50,0.00,,,0.00,weatherlink.com 1.10,2013-03-16 08:23:00,
2013-03-16 03:38:00,64.5,46.0,29.75,SSW,202,3.0,11.0,51,0.00,,,0.00,weatherlink.com 1.10,2013-03-16 08:38:00,
2013-03-16 03:53:00,63.9,46.0,29.75,SSW,196,10.0,10.0,52,0.00,,,0.00,weatherlink.com 1.10,2013-03-16 08:53:00,
2013-03-16 04:08:00,64.1,45.0,29.75,South,187,6.0,12.0,51,0.00,,,0.00,weatherlink.com 1.10,2013-03-16 09:08:00,
2013-03-16 04:38:00,64.3,45.0,29.74,South,186,10.0,17.0,50,0.00,,,0.00,weatherlink.com 1.10,2013-03-16 09:38:00,
2013-03-16 04:53:00,63.9,45.0,29.75,South,175,7.0,15.0,51,0.00,,,0.00,weatherlink.com 1.10,2013-03-16 09:53:00,
2013-03-16 05:08:00,63.8,45.0,29.75,South,174,9.0,15.0,51,0.00,,,0.00,weatherlink.com 1.10,2013-03-16 10:08:00,
2013-03-16 05:23:00,63.5,45.0,29.75,SSW,198,12.0,15.0,51,0.00,,,0.00,weatherlink.com 1.10,2013-03-16 10:23:00,
2013-03-16 05:38:00,63.2,45.0,29.75,South,187,6.0,13.0,52,0.00,,,0.00,weatherlink.com 1.10,2013-03-16 10:38:00,
2013-03-16 05:53:00,62.6,45.0,29.75,SSW,192,9.0,12.0,53,0.00,,,0.00,weatherlink.com 1.10,2013-03-16 10:53:00,
2013-03-16 06:09:00,63.2,45.0,29.75,South,173,7.0,16.0,51,0.00,,,0.00,weatherlink.com 1.10,2013-03-16 11:09:00,
2013-03-16 06:24:00,62.6,45.0,29.76,SSE,163,6.0,11.0,52,0.00,,,0.00,weatherlink.com 1.10,2013-03-16 11:24:00,
2013-03-16 06:39:00,62.3,45.0,29.77,SSE,159,4.0,9.0,53,0.00,,,0.00,weatherlink.com 1.10,2013-03-16 11:39:00,
2013-03-16 06:54:00,60.6,44.0,29.78,SSE,160,1.0,2.0,55,0.00,,,0.00,weatherlink.com 1.10,2013-03-16 11:54:00,
2013-03-16 07:09:00,58.2,44.0,29.81,SSE,159,0.0,4.0,60,0.00,,,0.00,weatherlink.com 1.10,2013-03-16 12:09:00,
2013-03-16 07:24:00,57.5,44.0,29.81,NNE,24,0.0,4.0,61,0.00,,,0.00,weatherlink.com 1.10,2013-03-16 12:24:00,
2013-03-16 07:39:00,56.3,44.0,29.81,NE,43,5.0,7.0,64,0.00,,,0.00,weatherlink.com 1.10,2013-03-16 12:39:00,
2013-03-16 07:54:00,55.3,44.0,29.82,ENE,58,2.0,8.0,67,0.00,,,0.00,weatherlink.com 1.10,2013-03-16 12:54:00,
2013-03-16 08:09:00,55.3,44.0,29.83,NE,53,0.0,5.0,67,0.00,,,0.00,weatherlink.com 1.10,2013-03-16 13:09:00,
2013-03-16 08:24:00,55.7,45.0,29.83,NE,53,0.0,3.0,67,0.00,,,0.00,weatherlink.com 1.10,2013-03-16 13:24:00,
2013-03-16 08:39:00,56.2,46.0,29.83,NE,53,1.0,4.0,68,0.00,,,0.00,weatherlink.com 1.10,2013-03-16 13:39:00,
2013-03-16 08:54:00,58.2,47.0,29.83,ESE,116,4.0,6.0,66,0.00,,,0.00,weatherlink.com 1.10,2013-03-16 13:54:00,
2013-03-16 09:09:00,60.1,47.0,29.83,SE,138,5.0,6.0,63,0.00,,,0.00,weatherlink.com 1.10,2013-03-16 14:09:00,
2013-03-16 09:24:00,61.6,48.0,29.83,SE,139,5.0,6.0,62,0.00,,,0.00,weatherlink.com 1.10,2013-03-16 14:24:00,
2013-03-16 09:39:00,62.6,49.0,29.84,SE,138,7.0,8.0,61,0.00,,,0.00,weatherlink.com 1.10,2013-03-16 14:39:00,
2013-03-16 09:54:00,63.6,49.0,29.83,SE,130,4.0,10.0,59,0.00,,,0.00,weatherlink.com 1.10,2013-03-16 14:54:00,
2013-03-16 10:09:00,64.2,49.0,29.84,SSE,148,6.0,8.0,59,0.00,,,0.00,weatherlink.com 1.10,2013-03-16 15:09:00,
2013-03-16 10:24:00,64.7,49.0,29.84,SSE,155,3.0,9.0,58,0.00,,,0.00,weatherlink.com 1.10,2013-03-16 15:24:00,
2013-03-16 10:39:00,65.3,50.0,29.84,SSE,148,0.0,6.0,58,0.00,,,0.00,weatherlink.com 1.10,2013-03-16 15:39:00,
2013-03-16 10:54:00,66.5,50.0,29.84,SE,142,3.0,7.0,55,0.00,,,0.00,weatherlink.com 1.10,2013-03-16 15:54:00,
2013-03-16 11:09:00,66.7,49.0,29.84,ESE,110,5.0,7.0,54,0.00,,,0.00,weatherlink.com 1.10,2013-03-16 16:09:00,
2013-03-16 11:24:00,67.1,49.0,29.84,ESE,117,0.0,5.0,53,0.00,,,0.00,weatherlink.com 1.10,2013-03-16 16:24:00,
2013-03-16 11:39:00,67.8,50.0,29.84,SE,124,0.0,9.0,53,0.00,,,0.00,weatherlink.com 1.10,2013-03-16 16:39:00,
2013-03-16 11:54:00,68.6,50.0,29.84,ESE,118,5.0,11.0,52,0.00,,,0.00,weatherlink.com 1.10,2013-03-16 16:54:00,
2013-03-16 12:09:00,68.6,50.0,29.84,SE,126,3.0,9.0,52,0.00,,,0.00,weatherlink.com 1.10,2013-03-16 17:09:00,
2013-03-16 12:24:00,68.5,51.0,29.83,SE,135,10.0,10.0,53,0.00,,,0.00,weatherlink.com 1.10,2013-03-16 17:24:00,
2013-03-16 12:39:00,69.6,51.0,29.84,SSE,157,3.0,8.0,51,0.00,,,0.00,weatherlink.com 1.10,2013-03-16 17:39:00,
2013-03-16 12:54:00,70.0,50.0,29.83,SE,141,1.0,7.0,50,0.00,,,0.00,weatherlink.com 1.10,2013-03-16 17:54:00,
2013-03-16 13:09:00,71.3,50.0,29.82,SSE,154,4.0,5.0,48,0.00,,,0.00,weatherlink.com 1.10,2013-03-16 18:09:00,
2013-03-16 13:24:00,70.6,50.0,29.82,SE,138,2.0,7.0,48,0.00,,,0.00,weatherlink.com 1.10,2013-03-16 18:24:00,
2013-03-16 13:39:00,71.2,50.0,29.81,ENE,59,8.0,9.0,48,0.00,,,0.00,weatherlink.com 1.10,2013-03-16 18:39:00,
2013-03-16 13:54:00,71.7,51.0,29.81,ESE,121,5.0,8.0,48,0.00,,,0.00,weatherlink.com 1.10,2013-03-16 18:54:00,
2013-03-16 14:09:00,71.9,52.0,29.79,ESE,114,7.0,10.0,49,0.00,,,0.00,weatherlink.com 1.10,2013-03-16 19:09:00,
2013-03-16 14:24:00,72.2,51.0,29.79,SE,136,4.0,10.0,48,0.00,,,0.00,weatherlink.com 1.10,2013-03-16 19:24:00,
2013-03-16 14:39:00,72.4,51.0,29.78,South,178,0.0,7.0,47,0.00,,,0.00,weatherlink.com 1.10,2013-03-16 19:39:00,
2013-03-16 14:54:00,73.1,52.0,29.78,SSE,158,1.0,10.0,47,0.00,,,0.00,weatherlink.com 1.10,2013-03-16 19:54:00,
2013-03-16 15:09:00,73.5,51.0,29.77,SE,124,3.0,11.0,46,0.00,,,0.00,weatherlink.com 1.10,2013-03-16 20:09:00,
2013-03-16 15:24:00,73.7,52.0,29.77,SE,139,7.0,10.0,46,0.00,,,0.00,weatherlink.com 1.10,2013-03-16 20:24:00,
2013-03-16 15:39:00,72.6,51.0,29.77,NE,45,4.0,7.0,47,0.00,,,0.00,weatherlink.com 1.10,2013-03-16 20:39:00,
2013-03-16 15:54:00,73.3,52.0,29.77,ESE,120,1.0,10.0,47,0.00,,,0.00,weatherlink.com 1.10,2013-03-16 20:54:00,
2013-03-16 16:09:00,68.9,50.0,29.77,NNE,13,12.0,16.0,52,0.00,,,0.00,weatherlink.com 1.10,2013-03-16 21:09:00,
2013-03-16 16:24:00,68.2,50.0,29.76,North,5,15.0,17.0,53,0.00,,,0.00,weatherlink.com 1.10,2013-03-16 21:24:00,
2013-03-16 16:39:00,68.1,50.0,29.77,NNE,22,9.0,20.0,52,0.00,,,0.00,weatherlink.com 1.10,2013-03-16 21:39:00,
2013-03-16 16:54:00,67.8,49.0,29.77,North,360,9.0,20.0,52,0.00,,,0.00,weatherlink.com 1.10,2013-03-16 21:54:00,
2013-03-16 17:09:00,65.8,48.0,29.77,North,355,10.0,21.0,52,0.00,,,0.00,weatherlink.com 1.10,2013-03-16 22:09:00,
2013-03-16 17:24:00,64.9,47.0,29.78,ENE,63,7.0,19.0,53,0.00,,,0.00,weatherlink.com 1.10,2013-03-16 22:24:00,
2013-03-16 17:39:00,65.1,47.0,29.78,North,5,19.0,19.0,52,0.00,,,0.00,weatherlink.com 1.10,2013-03-16 22:39:00,
2013-03-16 17:55:00,63.0,46.0,29.79,NNE,22,12.0,22.0,54,0.00,,,0.00,weatherlink.com 1.10,2013-03-16 22:55:00,
2013-03-16 18:10:00,62.1,45.0,29.79,NNE,22,9.0,20.0,54,0.00,,,0.00,weatherlink.com 1.10,2013-03-16 23:10:00,
2013-03-16 18:25:00,60.4,44.0,29.79,North,5,10.0,22.0,56,0.00,,,0.00,weatherlink.com 1.10,2013-03-16 23:25:00,
2013-03-16 18:40:00,59.0,44.0,29.80,North,5,6.0,20.0,57,0.00,,,0.00,weatherlink.com 1.10,2013-03-16 23:40:00,
2013-03-16 18:55:00,57.9,43.0,29.80,NNE,17,11.0,19.0,58,0.00,,,0.00,weatherlink.com 1.10,2013-03-16 23:55:00,
2013-03-16 19:10:00,56.9,43.0,29.81,ENE,60,9.0,19.0,60,0.00,,,0.00,weatherlink.com 1.10,2013-03-17 00:10:00,
2013-03-16 19:25:00,55.9,42.0,29.82,ENE,65,8.0,17.0,61,0.00,,,0.00,weatherlink.com 1.10,2013-03-17 00:25:00,
2013-03-16 19:40:00,55.4,42.0,29.82,North,9,7.0,17.0,61,0.00,,,0.00,weatherlink.com 1.10,2013-03-17 00:40:00,
2013-03-16 19:55:00,55.1,42.0,29.82,NE,53,8.0,15.0,62,0.00,,,0.00,weatherlink.com 1.10,2013-03-17 00:55:00,
2013-03-16 20:10:00,54.5,42.0,29.83,NW,325,7.0,17.0,62,0.00,,,0.00,weatherlink.com 1.10,2013-03-17 01:10:00,
2013-03-16 20:25:00,54.2,41.0,29.83,NNE,13,6.0,14.0,62,0.00,,,0.00,weatherlink.com 1.10,2013-03-17 01:25:00,
2013-03-16 20:40:00,53.9,41.0,29.84,North,5,7.0,16.0,62,0.00,,,0.00,weatherlink.com 1.10,2013-03-17 01:40:00,
2013-03-16 20:55:00,53.7,41.0,29.84,NNE,26,12.0,18.0,62,0.00,,,0.00,weatherlink.com 1.10,2013-03-17 01:55:00,
2013-03-16 21:10:00,53.2,40.0,29.85,NNE,32,8.0,15.0,62,0.00,,,0.00,weatherlink.com 1.10,2013-03-17 02:10:00,
2013-03-16 21:25:00,52.8,40.0,29.85,North,360,6.0,16.0,63,0.00,,,0.00,weatherlink.com 1.10,2013-03-17 02:25:00,
2013-03-16 21:40:00,52.4,40.0,29.85,NE,51,11.0,16.0,64,0.00,,,0.00,weatherlink.com 1.10,2013-03-17 02:40:00,
2013-03-16 21:55:00,52.0,40.0,29.86,NE,47,10.0,16.0,64,0.00,,,0.00,weatherlink.com 1.10,2013-03-17 02:55:00,
2013-03-16 22:10:00,51.8,40.0,29.86,NE,56,6.0,17.0,65,0.00,,,0.00,weatherlink.com 1.10,2013-03-17 03:10:00,
2013-03-16 22:25:00,51.5,40.0,29.86,North,11,9.0,18.0,66,0.00,,,0.00,weatherlink.com 1.10,2013-03-17 03:25:00,
2013-03-16 22:40:00,51.1,40.0,29.87,ENE,71,4.0,13.0,67,0.00,,,0.00,weatherlink.com 1.10,2013-03-17 03:40:00,
2013-03-16 22:56:00,50.7,40.0,29.87,North,5,9.0,12.0,67,0.00,,,0.00,weatherlink.com 1.10,2013-03-17 03:56:00,
2013-03-16 23:11:00,50.2,40.0,29.87,NNE,33,7.0,13.0,68,0.00,,,0.00,weatherlink.com 1.10,2013-03-17 04:11:00,
2013-03-16 23:26:00,49.7,40.0,29.87,NNE,17,6.0,12.0,69,0.00,,,0.00,weatherlink.com 1.10,2013-03-17 04:26:00,
2013-03-16 23:41:00,49.4,40.0,29.87,North,5,8.0,15.0,69,0.00,,,0.00,weatherlink.com 1.10,2013-03-17 04:41:00,